Location: Beddau
(51.5575°N, 3.3561°W)
Time: 12:52:24
(UTC+00:00)

USA 186 - Pass Details

Date: 03 March 2021
Orbit: 261 x 429 km, 96.9° (Epoch: 15 April)

Event Time Altitude Azimuth Distance (km) Brightness Sun altitude
Exits shadow 19:59:54 41° 284° (WNW) 445 2.4 -19.7°
Drops below altitude 10° 20:02:02 10° 336° (NNW) 1,187 4.6 -20.0°
Sets 20:04:01 0° 343° (NNW) 2,053 5.7 -20.3°
